Tracking 27122 objects as of 26-Mar-2023
HD Live streaming from Space Station
objects crossing your sky now

STARLINK-1893

Track STARLINK-1893 now!
10-day predictions
STARLINK-1893 is classified as:


NORAD ID: 46786
Int'l Code: 2020-074AZ
Perigee: 553.1 km
Apogee: 555.5 km
Inclination: 53.1 °
Period: 95.6 minutes
Semi major axis: 6925 km
RCS: Unknown
Launch date: October 24, 2020
Source: United States (US)
Launch site: AIR FORCE EASTERN TEST RANGE (AFETR)
Your satellite tracking list
Your tracking list is empty




NASA's NSSDC Master Catalog

Two Line Element Set (TLE):
1 46786U 20074AZ  23084.74268237  .00003140  00000-0  22948-3 0  9996
2 46786  53.0533  99.6843 0001713  73.3077 286.8100 15.06424923134324
Source of the keplerian elements: AFSPC